Other Public Products
Issued by NWS Grand Forks, ND

Home | Current Version | Previous Version | Graphics & Text | Print | Product List | Glossary On
Versions: 1 2 3 4 5 6 7 8 9 10 11 12 13 14 15 16 17 18 19 20 21 22 23 24 25 26 27 28 29 30 31 32 33 34 35 36 37 38 39 40 41 42 43 44 45 46 47 48 49 50
000
FPUS83 KFGF 202210
OPUFGF
PRAIRIE TO PINES WEATHER ROUNDUP
NATIONAL WEATHER SERVICE EASTERN NORTH DAKOTA/GRAND FORKS ND
400 PM CST MON NOV 20 2017

 **SATELLITE DATA USED TO AUGMENT SKY COVER AT AUTOMATED STATIONS**
 *****  WEATHER ACROSS EASTERN NORTH DAKOTA  *****

CITY           SKY/WX    TMP DP  RH WIND       PRES   REMARKS
GRAND FORKS    FAIR      43  30  60 W17       29.30R
GRND FORKS AFB FAIR      43  29  56 W18G24    29.32R
GRND FORKS NWS NOT AVBL
BUXTON         NOT AVBL
DEVILS LAKE    FAIR      38  31  76 W31G38    29.36R
FARGO          FAIR      53  26  35 W17       29.34S
WAHPETON ARPT  NOT AVBL
$$

 *****  WEATHER ACROSS CENTRAL AND WESTERN NORTH DAKOTA  *****

CITY           SKY/WX    TMP DP  RH WIND       PRES   REMARKS
JAMESTOWN      FAIR      49  27  42 W28G39    29.42R
BISMARCK       FAIR      54  29  38 NW24G39   29.54R
MINOT          FAIR      35  22  58 W29G45    29.52R WCI  22
MINOT AFB      FAIR      32  21  64 NW28G38   29.52R WCI  18
GARRISON         N/A     37  27  67 NW28G40   29.56R
WILLISTON      CLOUDY    37  17  44 NW30G38   29.66R
DICKINSON      FAIR      46  25  43 NW30G37   29.59R
HETTINGER      FAIR      52  24  33 NW30G40   29.61R
$$

 *****  OTHER OBSERVATIONS NORTHEAST NORTH DAKOTA  *****

CITY           SKY/WX    TMP DP  RH WIND       PRES   REMARKS
WALHALLA       FAIR      41  32  70 W24G33    29.26R
LANGDON        MOCLDY    37  32  81 W28G35    29.29R
CAVALIER       FAIR      41  30  65 W26G39    29.26R
GRAFTON        FAIR      41  32  70 W22G30    29.30R
CANDO          FAIR      37  32  81 W26G39    29.38R
FORT TOTTEN      N/A     41  31  66 NW14      29.95S
ROLLA          MOCLDY    34  27  75 NW30G44   29.37R WCI  20
RUGBY          MOCLDY    36  28  75 W28G44    29.43R
 ***** THE ABOVE OBSERVATIONS ARE NON NWS ARE NOT QUALITY
        CONTROLLED AND MAY MIS-REPORT RAIN FOR SNOW...
$$

 *****  OTHER OBSERVATIONS SOUTHEAST NORTH DAKOTA *****

CITY           SKY/WX    TMP DP  RH WIND       PRES   REMARKS
COOPERSTOWN    FAIR      45  30  57 W24G31    29.38R
VALLEY CITY    FAIR      50  25  37 W20       29.41R
OAKES            N/A     54  23  30 W17G23    29.43R
GWINNER          N/A     54  21  28 W13G20    29.41R
SHEYENNE NWR     N/A     56  23  28 W13       29.95S
BUFFALO        NOT AVBL
WYNDMERE       NOT AVBL
 ***** THE ABOVE OBSERVATIONS ARE NON NWS ARE NOT QUALITY
       CONTROLLED AND MAY MIS-REPORT RAIN FOR SNOW...
$$

  *****  WEATHER ACROSS NORTHERN MINNESOTA  *****

CITY           SKY/WX    TMP DP  RH WIND       PRES   REMARKS
FLAG ISLAND    CLOUDY    37  27  65 SW12      29.15S
WARROAD        FAIR      37  30  75 SW10G16   29.19S
ROSEAU         FAIR      37  30  75 SW10      29.20R
HALLOCK        MOCLDY    39  32  75 W15       29.23R
THF RVR FALLS  FAIR      40  29  64 W22G28    29.27R
HALSTAD        NOT AVBL
FOSSTON        FAIR      39  28  65 SW12      29.30R
BAUDETTE       CLOUDY    39  27  62 SW9       29.19R
WASKISH        MOCLDY    37  28  70 SW9       29.24R
CROOKSTON      FAIR      45  30  57 W24       29.30R
$$
  *****  WEATHER ACROSS CENTRAL AND WEST MINNESOTA  *****

CITY           SKY/WX    TMP DP  RH WIND       PRES   REMARKS
BEMIDJI        FAIR      42  25  49 SW12G17   29.27S
PARK RAPIDS    FAIR      43  26  51 W10       29.33R
WADENA         FAIR      43  28  56 W12       29.36R
DETROIT LAKES  FAIR      46  27  46 SW10      29.35S
MOORHEAD       FAIR      52  25  35 W16       29.36R
FERGUS FALLS   FAIR      46  28  49 W7        29.40S
ELBOW LAKE     FAIR      46  26  46 NW7       29.41R
MORRIS MN      FAIR      45  30  57 W7        29.42R
STAPLES        FAIR      41  27  56 SW8       29.37R
WHEATON        FAIR      52  21  30 W10       29.44R
$$
  *****  WEATHER ELSEWHERE ACROSS MINNESOTA  *****

CITY           SKY/WX    TMP DP  RH WIND       PRES   REMARKS
DULUTH         FAIR      32  28  85 S8        29.32F WCI  25
INTRNTL FALLS  FAIR      41  25  53 SW9       29.20F
ELY            FAIR      39  27  60 S6        29.26F
CLOQUET        FAIR      37  27  65 S10       29.33S
BRAINERD       FAIR      39  28  64 SW12      29.36R
HIBBING        FAIR      38  26  62 S5        29.28S
ALEXANDRIA     FAIR      41  29  62 W8        29.41R
SAINT CLOUD    FAIR      39  30  70 S6        29.39F
MINNEAPOLIS    CLOUDY    47  31  53 SW9       29.46S
$$

  *****  WEATHER ACROSS SOUTH DAKOTA  *****

CITY           SKY/WX    TMP DP  RH WIND       PRES   REMARKS
SIOUX FALLS    MOCLDY    50  28  42 SW8       29.53S
BROOKINGS      FAIR      49  25  39 W3        29.50R
WATERTOWN      FAIR      48  26  42 SW8       29.46R
HURON          FAIR      60  20  21 W15       29.50R
SISSETON         N/A     53  26  35 W15       29.43R
ABERDEEN       FAIR      57  21  24 W14       29.49R
MITCHELL       FAIR      59  23  25 W8        29.53R
PIERRE         FAIR      59  23  25 NW16      29.55R
MOBRIDGE       FAIR      57  22  25 NW16G24   29.53R
RAPID CITY     FAIR      61  20  20 N22G30    29.64R
$$

  *****  SOME WEATHER IN NEARBY STATES *****

CITY           SKY/WX    TMP DP  RH WIND       PRES   REMARKS
GLASGOW MT     CLOUDY    35  18  49 NW17      29.74R WCI  25
GREAT FALLS MT CLOUDY    36  23  59 NE13      29.74R
CHEYENNE WY    FAIR      56   9  15 NW29G48   29.83R
SCOTTSBLUFF NE FAIR      59  15  18 NW23G35   29.75R
OMAHA NE       MOCLDY    59  26  28 SW10      29.61R
DES MOINES IA  CLOUDY    59  26  28 SW16G26   29.62R
DAVENPORT IA   FAIR      56  31  38 S16G23    29.70F
CHICAGO IL     MOCLDY    52  34  50 SW16G25   29.74F
EAU CLAIRE WI  FAIR      47  30  51 SW10      29.47S
LA CROSSE WI   FAIR      52  32  46 S9        29.53R
$$

  *****  SOME NATIONAL WEATHER *****

CITY           SKY/WX    TMP DP  RH WIND       PRES   REMARKS
LA GUARDIA NY  MOCLDY    46  24  42 SW13G18   30.07R
RALEIGH NC     MOCLDY    53  24  32 VRB5      30.22S
ATLANTA GA     MOCLDY    57  33  40 SE6       30.16S
NEW ORLEANS LA PTSUNNY   60  41  49 NE5       30.13S
OKLAHOMA CITY  FAIR      63  25  23 S22G31    29.88F
ALBUQUERQUE NM CLOUDY    56  -3   9 CALM      30.08F
SALT LAKE CITY PTSUNNY   45  34  65 S8        30.09F
LOS ANGELES CA PTSUNNY   68  55  63 W9        30.00F
BOISE ID       LGT RAIN  47  40  76 SE14      29.94R
SEATTLE WA     CLOUDY    48  45  89 SW10      29.83R
$$

*** WEATHER ACROSS MANITOBA...SASKATCHEWAN AND ONTARIO ***
                ***ONTARIO***

CITY           SKY/WX    TMP DP  RH WIND       PRES   REMARKS
GERALDTON      LGT SNOW  25  23  93 SE8       29.42F VSB 1   WCI  16
THUNDER BAY    CLOUDY    32  28  86 E6        29.37F
SIOUX LOOKOUT  CLOUDY    28  25  86 SE6       29.16F WCI  22
TORONTO        PTCLDY    41  30  65 SW10G18   29.86F
BIG TROUT LK   CLEAR      1   0  92 CALM      29.47F
PICKLE LAKE    LGT SNOW  16  12  86 E9        29.26F VSB 3/4 WCI   4
DRYDEN         FLURRIES  32  25  74 S12       29.13F WCI  23
KENORA         LGT SNOW  34  28  80 S10       29.12F
$$
                *** MANITOBA***

CITY           SKY/WX    TMP DP  RH WIND       PRES   REMARKS
BRANDON        MOCLDY    23  18  80 NW38G48   29.39R WCI   4
DAUPHIN        CLOUDY    25  16  68 NW21G28   29.39R WCI  10
ISLAND LAKE    FLURRIES  10   5  79 NE8G17    29.43R WCI  -1
PILOT MOUND      N/A     34  28  80 NW31G44     N/A  WCI  20
THE PAS        LGT SNOW  12   7  79 N14       29.56R VSB 1   WCI  -3
THOMPSON       MOCLDY     5   1  85 N6        29.61R WCI  -6
WINNIPEG       LGT SNOW  32  30  93 NW24G35   29.21R WCI  19
LYNN LAKE      MOCLDY     3   1  92 NW6       29.68R WCI  -8
CHURCHILL      LGT SNOW  19  18  93 NW20G25   29.57R DRFTSNOWWCI   4
$$
                ***SASKATCHEWAN***

CITY           SKY/WX    TMP DP  RH WIND       PRES   REMARKS
ESTEVAN        MOCLDY    23  16  74 NW28G47   29.60R WCI   6
KINDERSLEY     PTCLDY     5  -2  72 NW22G30   29.82R WCI -16
LLOYDMINSTER   PTCLDY     0  -8  71 NW17G23   29.85R WCI -21
PRINCE ALBERT  FLURRIES  10   3  72 NW17G26   29.73R WCI  -7
REGINA         SNOWSHWR  14  10  85 NW31G38   29.67R VSB 3/4 WCI  -7
YORKTON        LGT SNOW  19  14  79 NW24G35   29.50R WCI   2
N. BATTLEFORD  CLEAR      5  -4  66 NW22G29   29.84R WC



USA.gov is the U.S. government's official web portal to all federal, state and local government web resources and services.